Terminal Aerodrome Forecast
Issued by NWS Atlanta, GA

Home | Current Version | Previous Version | Text Only | Print | Product List | Glossary On
Versions: 1 2 3 4 5 6 7 8 9 10 11 12 13 14 15 16 17 18 19 20 21 22 23 24 25 26 27 28 29 30 31 32 33 34 35 36 37 38
000
FTUS42 KFFC 261135
TAFATL
TAF
KATL 261135Z 2612/2718 13007KT P6SM OVC009
     FM261500 15007KT P6SM OVC015
     FM261800 16007KT P6SM -SHRA OVC035 PROB30 2621/2624 3SM TSRA BR
      OVC015CB
     FM270000 15006KT P6SM VCSH SCT030 BKN045
     FM270600 12005KT P6SM BKN009
     FM271400 15006KT P6SM BKN020=

USA.gov is the U.S. government's official web portal to all federal, state and local government web resources and services.